Time,TemperatureF,DewpointF,PressureIn,WindDirection,WindDirectionDegrees,WindSpeedMPH,WindSpeedGustMPH,Humidity,HourlyPrecipIn,Conditions,Clouds,dailyrainin,SoftwareType,DateUTC
2013-09-17 00:01:00,66.0,58.6,29.55,NNE,32,1.1,0.0,77,0.00,CLR,,0.00,WeatherDisplay:10.37,2013-09-17 04:01:00,
2013-09-17 00:06:00,66.0,58.6,29.55,NE,55,0.0,0.0,77,0.00,CLR,,0.00,WeatherDisplay:10.37,2013-09-17 04:06:00,
2013-09-17 00:11:00,65.6,58.2,29.55,NE,55,0.0,0.0,77,0.00,CLR,,0.00,WeatherDisplay:10.37,2013-09-17 04:11:00,
2013-09-17 00:16:00,65.5,58.1,29.55,NE,52,3.5,3.5,77,0.00,CLR,,0.00,WeatherDisplay:10.37,2013-09-17 04:16:00,
2013-09-17 00:21:00,65.5,58.1,29.55,NNE,18,0.0,0.0,77,0.00,CLR,,0.00,WeatherDisplay:10.37,2013-09-17 04:21:00,
2013-09-17 00:26:00,65.3,57.9,29.55,NNE,21,0.0,1.0,77,0.00,CLR,,0.00,WeatherDisplay:10.37,2013-09-17 04:26:00,
2013-09-17 00:31:00,65.2,58.2,29.55,NNE,31,0.0,0.0,78,0.00,CLR,,0.00,WeatherDisplay:10.37,2013-09-17 04:31:00,
2013-09-17 00:36:00,65.0,57.6,29.55,NNE,32,0.0,0.0,77,0.00,CLR,,0.00,WeatherDisplay:10.37,2013-09-17 04:36:00,
2013-09-17 00:41:00,64.8,57.4,29.55,NNE,32,0.0,0.0,77,0.00,CLR,,0.00,WeatherDisplay:10.37,2013-09-17 04:41:00,
2013-09-17 00:46:00,64.7,57.7,29.55,NE,40,1.1,1.1,78,0.00,CLR,,0.00,WeatherDisplay:10.37,2013-09-17 04:46:00,
2013-09-17 00:51:00,64.5,57.5,29.55,NE,54,2.0,2.0,78,0.00,CLR,,0.00,WeatherDisplay:10.37,2013-09-17 04:51:00,
2013-09-17 00:56:00,64.3,57.3,29.55,NNE,27,3.5,3.5,78,0.00,CLR,,0.00,WeatherDisplay:10.37,2013-09-17 04:56:00,
2013-09-17 01:01:00,64.2,57.5,29.55,NNE,27,0.0,0.0,79,0.00,CLR,,0.00,WeatherDisplay:10.37,2013-09-17 05:01:00,
2013-09-17 01:06:00,64.0,57.0,29.55,NNE,21,3.5,3.5,78,0.00,CLR,,0.00,WeatherDisplay:10.37,2013-09-17 05:06:00,
2013-09-17 01:11:00,63.9,56.9,29.55,NNE,31,0.0,0.0,78,0.00,CLR,,0.00,WeatherDisplay:10.37,2013-09-17 05:11:00,
2013-09-17 01:16:00,63.9,56.9,29.55,North,10,2.3,0.0,78,0.00,CLR,,0.00,WeatherDisplay:10.37,2013-09-17 05:16:00,
2013-09-17 01:21:00,63.7,56.7,29.55,NE,49,0.0,0.0,78,0.00,CLR,,0.00,WeatherDisplay:10.37,2013-09-17 05:21:00,
2013-09-17 01:26:00,63.7,56.7,29.56,North,0,0.0,0.0,78,0.00,CLR,,0.00,WeatherDisplay:10.37,2013-09-17 05:26:00,
2013-09-17 01:31:00,63.5,56.5,29.56,NNE,17,0.0,0.1,78,0.00,CLR,,0.00,WeatherDisplay:10.37,2013-09-17 05:31:00,
2013-09-17 01:36:00,63.4,56.8,29.56,NNE,32,0.0,0.0,79,0.00,CLR,,0.00,WeatherDisplay:10.37,2013-09-17 05:36:00,
2013-09-17 01:41:00,63.2,56.6,29.56,NE,47,3.5,3.5,79,0.00,CLR,,0.00,WeatherDisplay:10.37,2013-09-17 05:41:00,
2013-09-17 01:46:00,63.1,56.5,29.56,ENE,71,1.1,1.1,79,0.00,CLR,,0.00,WeatherDisplay:10.37,2013-09-17 05:46:00,
2013-09-17 01:51:00,63.1,56.5,29.56,NNE,30,0.0,0.0,79,0.00,CLR,,0.00,WeatherDisplay:10.37,2013-09-17 05:51:00,
2013-09-17 01:56:00,62.9,56.3,29.56,NNE,31,0.0,0.0,79,0.00,CLR,,0.00,WeatherDisplay:10.37,2013-09-17 05:56:00,
2013-09-17 02:01:00,62.7,56.1,29.56,NNE,31,0.0,0.0,79,0.00,CLR,,0.00,WeatherDisplay:10.37,2013-09-17 06:01:00,
2013-09-17 02:06:00,62.6,56.3,29.56,NNE,31,0.0,0.0,80,0.00,CLR,,0.00,WeatherDisplay:10.37,2013-09-17 06:06:00,
2013-09-17 02:11:00,62.4,56.1,29.56,NNE,31,0.0,0.0,80,0.00,CLR,,0.00,WeatherDisplay:10.37,2013-09-17 06:11:00,
2013-09-17 02:16:00,62.3,56.0,29.56,NNE,31,0.0,0.0,80,0.00,CLR,,0.00,WeatherDisplay:10.37,2013-09-17 06:16:00,
2013-09-17 02:21:00,62.1,56.2,29.56,NNE,24,2.3,0.0,81,0.00,CLR,,0.00,WeatherDisplay:10.37,2013-09-17 06:21:00,
2013-09-17 02:26:00,62.0,56.1,29.56,NNE,24,3.5,3.5,81,0.00,CLR,,0.00,WeatherDisplay:10.37,2013-09-17 06:26:00,
2013-09-17 02:31:00,61.8,55.9,29.56,NE,44,2.3,0.0,81,0.00,CLR,,0.00,WeatherDisplay:10.37,2013-09-17 06:31:00,
2013-09-17 02:36:00,61.6,56.0,29.56,NE,52,0.0,0.0,82,0.00,CLR,,0.00,WeatherDisplay:10.37,2013-09-17 06:36:00,
2013-09-17 02:41:00,61.5,56.0,29.56,NE,37,0.0,0.5,82,0.00,CLR,,0.00,WeatherDisplay:10.37,2013-09-17 06:41:00,
2013-09-17 02:47:00,61.3,55.8,29.56,NE,38,3.5,3.5,82,0.00,CLR,,0.00,WeatherDisplay:10.37,2013-09-17 06:47:00,
2013-09-17 02:52:00,61.2,55.7,29.56,NNE,30,4.6,4.6,82,0.00,CLR,,0.00,WeatherDisplay:10.37,2013-09-17 06:52:00,
2013-09-17 02:57:00,61.2,55.7,29.56,NE,38,0.0,0.0,82,0.00,CLR,,0.00,WeatherDisplay:10.37,2013-09-17 06:57:00,
2013-09-17 03:02:00,61.0,55.5,29.56,NNE,27,1.1,1.6,82,0.00,CLR,,0.00,WeatherDisplay:10.37,2013-09-17 07:02:00,
2013-09-17 03:07:00,61.0,55.5,29.56,NNE,25,3.5,3.5,82,0.00,CLR,,0.00,WeatherDisplay:10.37,2013-09-17 07:07:00,
2013-09-17 03:12:00,60.9,55.4,29.56,NE,41,0.0,1.3,82,0.00,CLR,,0.00,WeatherDisplay:10.37,2013-09-17 07:12:00,
2013-09-17 03:17:00,60.9,55.4,29.56,NE,45,0.0,0.0,82,0.00,CLR,,0.00,WeatherDisplay:10.37,2013-09-17 07:17:00,
2013-09-17 03:22:00,60.7,55.2,29.56,NE,45,0.0,0.0,82,0.00,CLR,,0.00,WeatherDisplay:10.37,2013-09-17 07:22:00,
2013-09-17 03:27:00,60.7,55.5,29.56,NE,37,3.5,3.5,83,0.00,CLR,,0.00,WeatherDisplay:10.37,2013-09-17 07:27:00,
2013-09-17 03:32:00,60.5,55.3,29.56,NE,37,0.0,0.0,83,0.00,CLR,,0.00,WeatherDisplay:10.37,2013-09-17 07:32:00,
2013-09-17 03:37:00,60.5,55.3,29.56,NE,35,0.0,0.0,83,0.00,CLR,,0.00,WeatherDisplay:10.37,2013-09-17 07:37:00,
2013-09-17 03:42:00,60.4,55.2,29.57,NE,37,0.0,0.0,83,0.00,CLR,,0.00,WeatherDisplay:10.37,2013-09-17 07:42:00,
2013-09-17 03:47:00,60.2,55.0,29.57,NE,38,0.0,0.0,83,0.00,CLR,,0.00,WeatherDisplay:10.37,2013-09-17 07:47:00,
2013-09-17 03:52:00,60.1,54.9,29.57,NE,42,0.0,0.0,83,0.00,CLR,,0.00,WeatherDisplay:10.37,2013-09-17 07:52:00,
2013-09-17 03:57:00,59.9,55.1,29.57,NE,37,1.1,0.0,84,0.00,CLR,,0.00,WeatherDisplay:10.37,2013-09-17 07:57:00,
2013-09-17 04:02:00,59.8,55.0,29.57,NE,37,0.0,0.0,84,0.00,CLR,,0.00,WeatherDisplay:10.37,2013-09-17 08:02:00,
2013-09-17 04:07:00,59.6,54.8,29.57,NE,37,1.1,0.0,84,0.00,CLR,,0.00,WeatherDisplay:10.37,2013-09-17 08:07:00,
2013-09-17 04:12:00,59.5,54.7,29.57,NE,41,2.3,0.0,84,0.00,CLR,,0.00,WeatherDisplay:10.37,2013-09-17 08:12:00,
2013-09-17 04:17:00,59.3,54.5,29.57,NE,44,0.0,0.0,84,0.00,CLR,,0.00,WeatherDisplay:10.37,2013-09-17 08:17:00,
2013-09-17 04:22:00,59.2,54.4,29.57,NE,44,0.0,0.0,84,0.00,CLR,,0.00,WeatherDisplay:10.37,2013-09-17 08:22:00,
2013-09-17 04:27:00,59.0,54.2,29.57,NE,44,0.0,0.0,84,0.00,CLR,,0.00,WeatherDisplay:10.37,2013-09-17 08:27:00,
2013-09-17 04:32:00,59.0,54.5,29.57,NE,37,0.0,0.0,85,0.00,CLR,,0.00,WeatherDisplay:10.37,2013-09-17 08:32:00,
2013-09-17 04:37:00,58.9,54.4,29.57,NE,37,0.0,0.0,85,0.00,CLR,,0.00,WeatherDisplay:10.37,2013-09-17 08:37:00,
2013-09-17 04:42:00,58.9,54.4,29.57,NE,35,0.0,0.0,85,0.00,CLR,,0.00,WeatherDisplay:10.37,2013-09-17 08:42:00,
2013-09-17 04:47:00,58.9,54.4,29.57,NE,37,2.3,0.0,85,0.00,CLR,,0.00,WeatherDisplay:10.37,2013-09-17 08:47:00,
2013-09-17 04:52:00,58.7,54.5,29.57,NE,37,0.0,0.0,86,0.00,CLR,,0.00,WeatherDisplay:10.37,2013-09-17 08:52:00,
2013-09-17 04:57:00,58.6,54.4,29.57,NE,38,0.0,0.0,86,0.00,CLR,,0.00,WeatherDisplay:10.37,2013-09-17 08:57:00,
2013-09-17 05:02:00,58.4,54.2,29.57,NNE,30,0.0,1.1,86,0.00,CLR,,0.00,WeatherDisplay:10.37,2013-09-17 09:02:00,
2013-09-17 05:07:00,58.3,54.1,29.57,NNE,30,0.0,0.0,86,0.00,CLR,,0.00,WeatherDisplay:10.37,2013-09-17 09:07:00,
2013-09-17 05:12:00,58.3,54.1,29.58,NNE,28,0.0,0.0,86,0.00,CLR,,0.00,WeatherDisplay:10.37,2013-09-17 09:12:00,
2013-09-17 05:17:00,58.1,53.9,29.58,NNE,28,0.0,0.0,86,0.00,CLR,,0.00,WeatherDisplay:10.37,2013-09-17 09:17:00,
2013-09-17 05:22:00,58.0,53.8,29.58,NNE,28,0.0,0.0,86,0.00,CLR,,0.00,WeatherDisplay:10.37,2013-09-17 09:22:00,
2013-09-17 05:27:00,57.8,54.0,29.58,NE,38,0.0,0.0,87,0.00,CLR,,0.00,WeatherDisplay:10.37,2013-09-17 09:27:00,
2013-09-17 05:32:00,57.8,54.0,29.58,NE,38,0.0,0.0,87,0.00,CLR,,0.00,WeatherDisplay:10.37,2013-09-17 09:32:00,
2013-09-17 05:37:00,57.6,53.8,29.58,NNE,30,2.3,2.3,87,0.00,CLR,,0.00,WeatherDisplay:10.37,2013-09-17 09:37:00,
2013-09-17 05:42:00,57.5,53.7,29.58,NNE,32,0.0,0.0,87,0.00,CLR,,0.00,WeatherDisplay:10.37,2013-09-17 09:42:00,
2013-09-17 05:47:00,57.5,53.7,29.58,NE,35,3.5,3.5,87,0.00,CLR,,0.00,WeatherDisplay:10.37,2013-09-17 09:47:00,
2013-09-17 05:52:00,57.3,53.8,29.58,NE,38,0.0,0.0,88,0.00,CLR,,0.00,WeatherDisplay:10.37,2013-09-17 09:52:00,
2013-09-17 05:57:00,57.3,53.8,29.59,NE,49,0.0,0.0,88,0.00,CLR,,0.00,WeatherDisplay:10.37,2013-09-17 09:57:00,
2013-09-17 06:02:00,57.2,53.7,29.59,NE,35,2.3,2.3,88,0.00,CLR,,0.00,WeatherDisplay:10.37,2013-09-17 10:02:00,
2013-09-17 06:07:00,57.2,53.7,29.59,NNE,32,0.0,0.0,88,0.00,CLR,,0.00,WeatherDisplay:10.37,2013-09-17 10:07:00,
2013-09-17 06:12:00,57.2,53.7,29.59,NNE,28,0.0,0.0,88,0.00,CLR,,0.00,WeatherDisplay:10.37,2013-09-17 10:12:00,
2013-09-17 06:17:00,57.0,53.5,29.59,NNE,32,3.5,3.5,88,0.00,CLR,,0.00,WeatherDisplay:10.37,2013-09-17 10:17:00,
2013-09-17 06:22:00,56.9,53.4,29.59,NNE,14,1.1,0.0,88,0.00,CLR,,0.00,WeatherDisplay:10.37,2013-09-17 10:22:00,
2013-09-17 06:27:00,56.9,53.4,29.59,NE,42,3.5,3.5,88,0.00,CLR,,0.00,WeatherDisplay:10.37,2013-09-17 10:27:00,
2013-09-17 06:32:00,56.9,53.4,29.59,North,3,3.5,3.5,88,0.00,CLR,,0.00,WeatherDisplay:10.37,2013-09-17 10:32:00,
2013-09-17 06:37:00,56.7,53.2,29.59,NNE,13,1.1,0.0,88,0.00,CLR,,0.00,WeatherDisplay:10.37,2013-09-17 10:37:00,
2013-09-17 06:42:00,56.7,53.2,29.60,NNE,25,1.1,0.0,88,0.00,CLR,,0.00,WeatherDisplay:10.37,2013-09-17 10:42:00,
2013-09-17 06:47:00,56.6,53.1,29.60,NNE,30,0.0,0.0,88,0.00,CLR,,0.00,WeatherDisplay:10.37,2013-09-17 10:47:00,
2013-09-17 06:52:00,56.6,53.1,29.60,NNE,20,1.1,0.0,88,0.00,CLR,,0.00,WeatherDisplay:10.37,2013-09-17 10:52:00,
2013-09-17 06:57:00,56.5,53.3,29.61,NNE,21,0.0,0.0,89,0.00,CLR,,0.00,WeatherDisplay:10.37,2013-09-17 10:57:00,
2013-09-17 07:02:00,56.5,53.3,29.61,NNE,32,0.0,0.0,89,0.00,CLR,,0.00,WeatherDisplay:10.37,2013-09-17 11:02:00,
2013-09-17 07:07:00,56.3,53.1,29.61,NNE,32,0.0,0.0,89,0.00,CLR,,0.00,WeatherDisplay:10.37,2013-09-17 11:07:00,
2013-09-17 07:12:00,56.3,53.1,29.61,NNE,32,0.0,0.0,89,0.00,CLR,,0.00,WeatherDisplay:10.37,2013-09-17 11:12:00,
2013-09-17 07:17:00,56.3,53.1,29.61,NNE,16,0.0,0.0,89,0.00,CLR,,0.00,WeatherDisplay:10.37,2013-09-17 11:17:00,
2013-09-17 07:22:00,56.2,53.0,29.61,NNE,21,0.0,0.0,89,0.00,CLR,,0.00,WeatherDisplay:10.37,2013-09-17 11:22:00,
2013-09-17 07:27:00,56.2,53.0,29.62,NNE,20,0.0,0.0,89,0.00,CLR,,0.00,WeatherDisplay:10.37,2013-09-17 11:27:00,
2013-09-17 07:32:00,56.3,53.1,29.62,NNE,20,0.0,0.0,89,0.00,CLR,,0.00,WeatherDisplay:10.37,2013-09-17 11:32:00,
2013-09-17 07:37:00,56.3,53.1,29.62,North,357,0.0,0.0,89,0.00,CLR,,0.00,WeatherDisplay:10.37,2013-09-17 11:37:00,
2013-09-17 07:42:00,56.3,53.1,29.63,North,359,0.0,0.0,89,0.00,CLR,,0.00,WeatherDisplay:10.37,2013-09-17 11:42:00,
2013-09-17 07:47:00,56.5,53.3,29.63,NNE,13,0.0,0.0,89,0.00,CLR,,0.00,WeatherDisplay:10.37,2013-09-17 11:47:00,
2013-09-17 07:52:00,56.5,53.3,29.63,NNE,24,3.5,3.5,89,0.00,CLR,,0.00,WeatherDisplay:10.37,2013-09-17 11:52:00,
2013-09-17 07:57:00,56.6,53.4,29.63,NNE,27,4.6,4.6,89,0.00,CLR,,0.00,WeatherDisplay:10.37,2013-09-17 11:57:00,
2013-09-17 08:02:00,56.7,53.5,29.63,NNE,28,1.1,1.1,89,0.00,CLR,,0.00,WeatherDisplay:10.37,2013-09-17 12:02:00,
2013-09-17 08:07:00,56.9,53.7,29.63,NE,38,1.1,0.0,89,0.00,CLR,,0.00,WeatherDisplay:10.37,2013-09-17 12:07:00,
2013-09-17 08:12:00,57.2,54.0,29.64,North,10,4.6,4.6,89,0.00,CLR,,0.00,WeatherDisplay:10.37,2013-09-17 12:12:00,
2013-09-17 08:17:00,58.0,54.5,29.64,NE,44,0.0,0.0,88,0.00,CLR,,0.00,WeatherDisplay:10.37,2013-09-17 12:17:00,
2013-09-17 08:22:00,58.4,54.5,29.64,NE,37,2.3,2.3,87,0.00,CLR,,0.00,WeatherDisplay:10.37,2013-09-17 12:22:00,
2013-09-17 08:27:00,59.0,54.5,29.64,NE,44,3.5,3.5,85,0.00,CLR,,0.00,WeatherDisplay:10.37,2013-09-17 12:27:00,
2013-09-17 08:32:00,59.3,54.5,29.64,NNE,31,0.0,0.0,84,0.00,CLR,,0.00,WeatherDisplay:10.37,2013-09-17 12:32:00,
2013-09-17 08:37:00,59.5,54.7,29.64,NE,51,6.9,6.9,84,0.00,CLR,,0.00,WeatherDisplay:10.37,2013-09-17 12:37:00,
2013-09-17 08:42:00,60.1,54.9,29.65,NE,45,4.6,4.6,83,0.00,CLR,,0.00,WeatherDisplay:10.37,2013-09-17 12:42:00,
2013-09-17 08:47:00,60.7,54.8,29.65,NE,45,6.9,6.9,81,0.00,CLR,,0.00,WeatherDisplay:10.37,2013-09-17 12:47:00,
2013-09-17 08:52:00,61.3,55.1,29.65,NNE,28,5.8,5.8,80,0.00,CLR,,0.00,WeatherDisplay:10.37,2013-09-17 12:52:00,
2013-09-17 08:57:00,61.8,55.2,29.65,NNE,13,6.9,6.9,79,0.00,CLR,,0.00,WeatherDisplay:10.37,2013-09-17 12:57:00,
2013-09-17 09:02:00,62.3,55.7,29.65,NNE,31,4.6,4.6,79,0.00,CLR,,0.00,WeatherDisplay:10.37,2013-09-17 13:02:00,
2013-09-17 09:07:00,62.9,55.9,29.65,ENE,62,0.0,0.0,78,0.00,CLR,,0.00,WeatherDisplay:10.37,2013-09-17 13:07:00,
2013-09-17 09:12:00,63.5,55.8,29.65,North,1,2.3,0.0,76,0.00,CLR,,0.00,WeatherDisplay:10.37,2013-09-17 13:12:00,
2013-09-17 09:17:00,63.9,56.2,29.65,SSE,148,0.0,0.0,76,0.00,CLR,,0.00,WeatherDisplay:10.37,2013-09-17 13:17:00,
2013-09-17 09:22:00,64.2,56.5,29.65,East,95,3.5,3.5,76,0.00,CLR,,0.00,WeatherDisplay:10.37,2013-09-17 13:22:00,
2013-09-17 09:27:00,64.5,56.0,29.66,ENE,65,4.6,0.0,74,0.00,CLR,,0.00,WeatherDisplay:10.37,2013-09-17 13:27:00,
2013-09-17 09:32:00,64.8,55.9,29.66,East,86,3.5,3.5,73,0.00,CLR,,0.00,WeatherDisplay:10.37,2013-09-17 13:32:00,
2013-09-17 09:37:00,65.2,55.9,29.66,ENE,64,8.1,8.1,72,0.00,CLR,,0.00,WeatherDisplay:10.37,2013-09-17 13:37:00,
2013-09-17 09:42:00,65.3,56.0,29.66,North,11,6.9,6.9,72,0.00,CLR,,0.00,WeatherDisplay:10.37,2013-09-17 13:42:00,
2013-09-17 09:48:00,65.6,56.3,29.66,SE,128,1.1,1.1,72,0.00,CLR,,0.00,WeatherDisplay:10.37,2013-09-17 13:48:00,
2013-09-17 09:53:00,66.3,56.2,29.66,NNE,28,4.6,4.6,70,0.00,CLR,,0.00,WeatherDisplay:10.37,2013-09-17 13:53:00,
2013-09-17 09:58:00,66.4,55.9,29.66,NE,45,2.3,2.3,69,0.00,CLR,,0.00,WeatherDisplay:10.37,2013-09-17 13:58:00,
2013-09-17 10:03:00,66.3,55.4,29.66,NE,51,8.1,8.1,68,0.00,CLR,,0.00,WeatherDisplay:10.37,2013-09-17 14:03:00,
2013-09-17 10:08:00,66.6,55.3,29.66,North,6,2.0,2.0,67,0.00,CLR,,0.00,WeatherDisplay:10.37,2013-09-17 14:08:00,
2013-09-17 10:13:00,66.9,56.0,29.67,ENE,72,3.5,3.5,68,0.00,CLR,,0.00,WeatherDisplay:10.37,2013-09-17 14:13:00,
2013-09-17 10:18:00,67.3,54.7,29.67,NE,41,11.5,11.5,64,0.00,CLR,,0.00,WeatherDisplay:10.37,2013-09-17 14:18:00,
2013-09-17 10:23:00,67.4,55.2,29.67,NNE,30,8.1,8.1,65,0.00,CLR,,0.00,WeatherDisplay:10.37,2013-09-17 14:23:00,
2013-09-17 10:28:00,67.6,55.8,29.67,SSW,198,3.5,3.5,66,0.00,CLR,,0.00,WeatherDisplay:10.37,2013-09-17 14:28:00,
2013-09-17 10:33:00,68.1,55.5,29.67,NE,38,3.5,3.8,64,0.00,CLR,,0.00,WeatherDisplay:10.37,2013-09-17 14:33:00,
2013-09-17 10:38:00,68.4,55.3,29.67,SE,141,5.0,0.0,63,0.00,CLR,,0.00,WeatherDisplay:10.37,2013-09-17 14:38:00,
2013-09-17 10:43:00,68.8,54.3,29.67,East,100,4.6,4.6,60,0.00,CLR,,0.00,WeatherDisplay:10.37,2013-09-17 14:43:00,
2013-09-17 10:48:00,69.3,54.4,29.67,ENE,75,6.9,6.9,59,0.00,CLR,,0.00,WeatherDisplay:10.37,2013-09-17 14:48:00,
2013-09-17 10:53:00,69.3,55.3,29.67,North,1,5.8,5.8,61,0.00,CLR,,0.00,WeatherDisplay:10.37,2013-09-17 14:53:00,
2013-09-17 10:58:00,69.3,56.2,29.67,NE,48,0.0,0.6,63,0.00,CLR,,0.00,WeatherDisplay:10.37,2013-09-17 14:58:00,
2013-09-17 11:03:00,69.6,55.6,29.67,NNE,25,3.5,3.5,61,0.00,CLR,,0.00,WeatherDisplay:10.37,2013-09-17 15:03:00,
2013-09-17 11:08:00,69.9,54.9,29.67,SE,131,4.6,4.6,59,0.00,CLR,,0.00,WeatherDisplay:10.37,2013-09-17 15:08:00,
2013-09-17 11:13:00,69.9,54.9,29.67,NNE,27,10.4,10.4,59,0.00,CLR,,0.00,WeatherDisplay:10.37,2013-09-17 15:13:00,
2013-09-17 11:18:00,70.1,55.1,29.67,NNE,25,8.1,8.1,59,0.00,CLR,,0.00,WeatherDisplay:10.37,2013-09-17 15:18:00,
2013-09-17 11:23:00,70.4,54.9,29.67,NNE,20,6.9,6.9,58,0.00,CLR,,0.00,WeatherDisplay:10.37,2013-09-17 15:23:00,
2013-09-17 11:28:00,70.8,54.3,29.67,SE,127,3.5,0.0,56,0.00,CLR,,0.00,WeatherDisplay:10.37,2013-09-17 15:28:00,
2013-09-17 11:33:00,70.9,54.9,29.67,NNE,18,5.8,5.8,57,0.00,CLR,,0.00,WeatherDisplay:10.37,2013-09-17 15:33:00,
2013-09-17 11:38:00,70.8,54.3,29.67,ENE,59,9.0,9.0,56,0.00,CLR,,0.00,WeatherDisplay:10.37,2013-09-17 15:38:00,
2013-09-17 11:43:00,70.6,53.6,29.67,East,85,12.7,12.7,55,0.00,CLR,,0.00,WeatherDisplay:10.37,2013-09-17 15:43:00,
2013-09-17 11:48:00,70.4,53.5,29.67,ESE,114,6.0,6.0,55,0.00,CLR,,0.00,WeatherDisplay:10.37,2013-09-17 15:48:00,
2013-09-17 11:53:00,70.4,53.0,29.67,NE,37,4.6,4.6,54,0.00,CLR,,0.00,WeatherDisplay:10.37,2013-09-17 15:53:00,
2013-09-17 11:58:00,69.9,53.0,29.67,ESE,109,10.4,10.4,55,0.00,CLR,,0.00,WeatherDisplay:10.37,2013-09-17 15:58:00,
2013-09-17 12:03:00,70.4,51.4,29.67,ENE,72,3.5,3.5,51,0.00,CLR,,0.00,WeatherDisplay:10.37,2013-09-17 16:03:00,
2013-09-17 12:08:00,70.6,51.6,29.67,ESE,114,0.0,0.0,51,0.00,CLR,,0.00,WeatherDisplay:10.37,2013-09-17 16:08:00,
2013-09-17 12:13:00,71.6,53.0,29.67,ENE,65,6.9,6.9,52,0.00,CLR,,0.00,WeatherDisplay:10.37,2013-09-17 16:13:00,
2013-09-17 12:18:00,71.6,53.0,29.67,NE,52,1.1,1.1,52,0.00,CLR,,0.00,WeatherDisplay:10.37,2013-09-17 16:18:00,
2013-09-17 12:23:00,71.8,53.2,29.67,NNE,21,5.8,5.8,52,0.00,CLR,,0.00,WeatherDisplay:10.37,2013-09-17 16:23:00,
2013-09-17 12:28:00,72.3,53.2,29.66,NNE,21,3.5,3.5,51,0.00,CLR,,0.00,WeatherDisplay:10.37,2013-09-17 16:28:00,
2013-09-17 12:33:00,72.0,52.3,29.66,NE,51,5.8,5.8,50,0.00,CLR,,0.00,WeatherDisplay:10.37,2013-09-17 16:33:00,
2013-09-17 12:38:00,72.0,52.3,29.66,NE,34,4.6,4.6,50,0.00,CLR,,0.00,WeatherDisplay:10.37,2013-09-17 16:38:00,
2013-09-17 12:43:00,72.1,51.3,29.66,NNE,16,6.9,6.9,48,0.00,CLR,,0.00,WeatherDisplay:10.37,2013-09-17 16:43:00,
2013-09-17 12:48:00,72.3,51.5,29.66,NE,47,8.1,8.1,48,0.00,CLR,,0.00,WeatherDisplay:10.37,2013-09-17 16:48:00,
2013-09-17 12:53:00,72.0,51.2,29.66,East,99,2.3,2.3,48,0.00,CLR,,0.00,WeatherDisplay:10.37,2013-09-17 16:53:00,
2013-09-17 12:58:00,72.0,50.1,29.66,NE,52,8.1,8.1,46,0.00,CLR,,0.00,WeatherDisplay:10.37,2013-09-17 16:58:00,
2013-09-17 13:03:00,72.1,50.2,29.66,North,0,10.4,10.4,46,0.00,CLR,,0.00,WeatherDisplay:10.37,2013-09-17 17:03:00,
2013-09-17 13:08:00,72.5,51.1,29.66,North,359,2.0,2.0,47,0.00,CLR,,0.00,WeatherDisplay:10.37,2013-09-17 17:08:00,
2013-09-17 13:13:00,73.0,50.4,29.65,North,6,2.3,2.3,45,0.00,CLR,,0.00,WeatherDisplay:10.37,2013-09-17 17:13:00,
2013-09-17 13:18:00,73.2,50.0,29.65,East,100,11.5,11.5,44,0.00,CLR,,0.00,WeatherDisplay:10.37,2013-09-17 17:18:00,
2013-09-17 13:23:00,73.5,49.6,29.65,ESE,109,3.5,3.5,43,0.00,CLR,,0.00,WeatherDisplay:10.37,2013-09-17 17:23:00,
2013-09-17 13:28:00,73.7,48.5,29.65,NE,35,11.5,11.5,41,0.00,CLR,,0.00,WeatherDisplay:10.37,2013-09-17 17:28:00,
2013-09-17 13:33:00,73.9,49.4,29.65,NE,37,5.8,5.8,42,0.00,CLR,,0.00,WeatherDisplay:10.37,2013-09-17 17:33:00,
2013-09-17 13:38:00,74.0,48.8,29.65,SSE,151,9.2,9.2,41,0.00,CLR,,0.00,WeatherDisplay:10.37,2013-09-17 17:38:00,
2013-09-17 13:43:00,73.9,47.4,29.65,ESE,104,6.9,6.9,39,0.00,CLR,,0.00,WeatherDisplay:10.37,2013-09-17 17:43:00,
2013-09-17 13:48:00,74.2,49.6,29.65,East,82,2.3,2.3,42,0.00,CLR,,0.00,WeatherDisplay:10.37,2013-09-17 17:48:00,
2013-09-17 13:53:00,74.0,47.5,29.64,ESE,109,3.5,0.0,39,0.00,CLR,,0.00,WeatherDisplay:10.37,2013-09-17 17:53:00,
2013-09-17 13:58:00,74.0,48.8,29.64,East,96,3.5,3.5,41,0.00,CLR,,0.00,WeatherDisplay:10.37,2013-09-17 17:58:00,
2013-09-17 14:03:00,73.9,48.1,29.64,NE,41,0.0,0.8,40,0.00,CLR,,0.00,WeatherDisplay:10.37,2013-09-17 18:03:00,
2013-09-17 14:08:00,73.5,48.4,29.63,ENE,62,3.5,3.5,41,0.00,CLR,,0.00,WeatherDisplay:10.37,2013-09-17 18:08:00,
2013-09-17 14:13:00,73.9,48.1,29.63,NNE,30,10.4,10.4,40,0.00,CLR,,0.00,WeatherDisplay:10.37,2013-09-17 18:13:00,
2013-09-17 14:18:00,73.7,48.5,29.63,North,359,5.0,5.0,41,0.00,CLR,,0.00,WeatherDisplay:10.37,2013-09-17 18:18:00,
2013-09-17 14:23:00,73.7,47.9,29.63,North,0,3.5,3.5,40,0.00,CLR,,0.00,WeatherDisplay:10.37,2013-09-17 18:23:00,
2013-09-17 14:28:00,73.5,48.4,29.63,ESE,113,4.6,4.6,41,0.00,CLR,,0.00,WeatherDisplay:10.37,2013-09-17 18:28:00,
2013-09-17 14:33:00,73.2,48.1,29.63,East,97,4.6,4.6,41,0.00,CLR,,0.00,WeatherDisplay:10.37,2013-09-17 18:33:00,
2013-09-17 14:38:00,73.3,48.8,29.63,SE,136,8.1,8.1,42,0.00,CLR,,0.00,WeatherDisplay:10.37,2013-09-17 18:38:00,
2013-09-17 14:43:00,73.5,47.7,29.63,SE,141,2.3,2.3,40,0.00,CLR,,0.00,WeatherDisplay:10.37,2013-09-17 18:43:00,
2013-09-17 14:48:00,73.7,47.9,29.63,East,82,0.0,0.2,40,0.00,CLR,,0.00,WeatherDisplay:10.37,2013-09-17 18:48:00,
2013-09-17 14:53:00,73.7,48.5,29.62,ESE,106,2.3,2.3,41,0.00,CLR,,0.00,WeatherDisplay:10.37,2013-09-17 18:53:00,
2013-09-17 14:58:00,73.9,48.1,29.62,ESE,114,0.0,0.0,40,0.00,CLR,,0.00,WeatherDisplay:10.37,2013-09-17 18:58:00,
2013-09-17 15:03:00,74.4,48.5,29.62,North,1,8.1,8.1,40,0.00,CLR,,0.00,WeatherDisplay:10.37,2013-09-17 19:03:00,
2013-09-17 15:08:00,74.2,49.0,29.61,NE,38,1.1,1.1,41,0.00,CLR,,0.00,WeatherDisplay:10.37,2013-09-17 19:08:00,
2013-09-17 15:13:00,73.9,48.7,29.61,SE,126,1.1,1.1,41,0.00,CLR,,0.00,WeatherDisplay:10.37,2013-09-17 19:13:00,
2013-09-17 15:18:00,73.9,48.7,29.61,North,0,2.0,2.0,41,0.00,CLR,,0.00,WeatherDisplay:10.37,2013-09-17 19:18:00,
2013-09-17 15:23:00,74.0,48.8,29.61,North,0,0.0,0.6,41,0.00,CLR,,0.00,WeatherDisplay:10.37,2013-09-17 19:23:00,
2013-09-17 15:28:00,74.7,49.4,29.61,NE,44,3.5,3.5,41,0.00,CLR,,0.00,WeatherDisplay:10.37,2013-09-17 19:28:00,
2013-09-17 15:33:00,74.9,48.3,29.61,NNE,20,5.8,5.8,39,0.00,CLR,,0.00,WeatherDisplay:10.37,2013-09-17 19:33:00,
2013-09-17 15:38:00,74.9,48.9,29.61,ESE,114,2.3,2.3,40,0.00,CLR,,0.00,WeatherDisplay:10.37,2013-09-17 19:38:00,
2013-09-17 15:43:00,75.1,48.4,29.61,SSE,160,2.3,2.3,39,0.00,CLR,,0.00,WeatherDisplay:10.37,2013-09-17 19:43:00,
2013-09-17 15:48:00,74.6,48.0,29.61,SE,126,0.0,0.0,39,0.00,CLR,,0.00,WeatherDisplay:10.37,2013-09-17 19:48:00,
2013-09-17 15:53:00,74.0,47.5,29.60,ESE,119,0.0,0.0,39,0.00,CLR,,0.00,WeatherDisplay:10.37,2013-09-17 19:53:00,
2013-09-17 15:58:00,74.6,48.0,29.60,SE,134,11.5,11.5,39,0.00,CLR,,0.00,WeatherDisplay:10.37,2013-09-17 19:58:00,
2013-09-17 16:03:00,74.6,48.7,29.60,NW,325,5.8,5.8,40,0.00,CLR,,0.00,WeatherDisplay:10.37,2013-09-17 20:03:00,
2013-09-17 16:08:00,74.2,48.3,29.60,ENE,75,1.1,1.1,40,0.00,CLR,,0.00,WeatherDisplay:10.37,2013-09-17 20:08:00,
2013-09-17 16:13:00,73.3,48.2,29.60,East,100,2.3,2.3,41,0.00,CLR,,0.00,WeatherDisplay:10.37,2013-09-17 20:13:00,
2013-09-17 16:18:00,73.5,49.0,29.60,North,356,7.0,7.0,42,0.00,CLR,,0.00,WeatherDisplay:10.37,2013-09-17 20:18:00,
2013-09-17 16:23:00,74.2,49.0,29.60,ENE,65,10.4,10.4,41,0.00,CLR,,0.00,WeatherDisplay:10.37,2013-09-17 20:23:00,
2013-09-17 16:28:00,73.5,49.0,29.60,East,90,5.8,5.8,42,0.00,CLR,,0.00,WeatherDisplay:10.37,2013-09-17 20:28:00,
2013-09-17 16:33:00,73.3,48.8,29.60,SE,126,0.0,0.0,42,0.00,CLR,,0.00,WeatherDisplay:10.37,2013-09-17 20:33:00,
2013-09-17 16:38:00,72.8,48.4,29.60,SE,126,0.0,0.0,42,0.00,CLR,,0.00,WeatherDisplay:10.37,2013-09-17 20:38:00,
2013-09-17 16:43:00,73.5,47.7,29.60,ENE,66,0.0,0.0,40,0.00,CLR,,0.00,WeatherDisplay:10.37,2013-09-17 20:43:00,
2013-09-17 16:48:00,73.7,48.5,29.60,ENE,71,1.0,1.0,41,0.00,CLR,,0.00,WeatherDisplay:10.37,2013-09-17 20:48:00,
2013-09-17 16:53:00,74.0,48.8,29.59,NNE,20,5.8,5.8,41,0.00,CLR,,0.00,WeatherDisplay:10.37,2013-09-17 20:53:00,
2013-09-17 16:58:00,74.2,49.0,29.59,ESE,114,0.0,0.0,41,0.00,CLR,,0.00,WeatherDisplay:10.37,2013-09-17 20:58:00,
2013-09-17 17:03:00,74.4,49.2,29.59,NE,35,2.3,3.4,41,0.00,CLR,,0.00,WeatherDisplay:10.37,2013-09-17 21:03:00,
2013-09-17 17:08:00,74.4,47.8,29.59,East,99,3.5,3.5,39,0.00,CLR,,0.00,WeatherDisplay:10.37,2013-09-17 21:08:00,
2013-09-17 17:13:00,74.4,47.8,29.59,East,99,3.5,3.5,39,0.00,CLR,,0.00,WeatherDisplay:10.37,2013-09-17 21:13:00,
2013-09-17 17:18:00,73.2,46.8,29.59,ESE,109,0.0,0.0,39,0.00,CLR,,0.00,WeatherDisplay:10.37,2013-09-17 21:18:00,
2013-09-17 17:23:00,73.0,48.5,29.59,ENE,65,0.0,0.0,42,0.00,CLR,,0.00,WeatherDisplay:10.37,2013-09-17 21:23:00,
2013-09-17 17:29:00,73.0,47.9,29.59,ESE,121,1.1,0.0,41,0.00,CLR,,0.00,WeatherDisplay:10.37,2013-09-17 21:29:00,
2013-09-17 17:34:00,73.2,48.7,29.59,NE,51,5.8,5.8,42,0.00,CLR,,0.00,WeatherDisplay:10.37,2013-09-17 21:34:00,
2013-09-17 17:39:00,73.0,48.5,29.59,SE,128,1.1,0.0,42,0.00,CLR,,0.00,WeatherDisplay:10.37,2013-09-17 21:39:00,
2013-09-17 17:44:00,72.7,48.3,29.59,SE,124,0.0,0.0,42,0.00,CLR,,0.00,WeatherDisplay:10.37,2013-09-17 21:44:00,
2013-09-17 17:49:00,72.7,48.3,29.59,ESE,102,0.0,0.0,42,0.00,CLR,,0.00,WeatherDisplay:10.37,2013-09-17 21:49:00,
2013-09-17 17:54:00,72.7,48.3,29.59,East,85,0.0,0.0,42,0.00,CLR,,0.00,WeatherDisplay:10.37,2013-09-17 21:54:00,
2013-09-17 17:59:00,71.5,47.2,29.59,East,85,0.0,0.0,42,0.00,CLR,,0.00,WeatherDisplay:10.37,2013-09-17 21:59:00,
2013-09-17 18:04:00,70.9,49.7,29.59,East,88,0.0,0.0,47,0.00,CLR,,0.00,WeatherDisplay:10.37,2013-09-17 22:04:00,
2013-09-17 18:09:00,70.9,50.2,29.59,NE,38,3.5,0.0,48,0.00,CLR,,0.00,WeatherDisplay:10.37,2013-09-17 22:09:00,
2013-09-17 18:14:00,70.6,50.0,29.59,NE,55,3.5,0.0,48,0.00,CLR,,0.00,WeatherDisplay:10.37,2013-09-17 22:14:00,
2013-09-17 18:19:00,70.6,50.0,29.59,North,8,1.1,0.0,48,0.00,CLR,,0.00,WeatherDisplay:10.37,2013-09-17 22:19:00,
2013-09-17 18:24:00,70.3,49.7,29.59,ENE,69,0.0,0.0,48,0.00,CLR,,0.00,WeatherDisplay:10.37,2013-09-17 22:24:00,
2013-09-17 18:29:00,70.1,49.5,29.59,NNE,23,3.5,0.0,48,0.00,CLR,,0.00,WeatherDisplay:10.37,2013-09-17 22:29:00,
2013-09-17 18:34:00,69.8,50.3,29.59,NE,54,0.0,0.0,50,0.00,CLR,,0.00,WeatherDisplay:10.37,2013-09-17 22:34:00,
2013-09-17 18:39:00,69.6,49.6,29.59,East,99,0.0,0.0,49,0.00,CLR,,0.00,WeatherDisplay:10.37,2013-09-17 22:39:00,
2013-09-17 18:44:00,69.6,49.6,29.59,East,100,0.0,0.0,49,0.00,CLR,,0.00,WeatherDisplay:10.37,2013-09-17 22:44:00,
2013-09-17 18:49:00,68.8,48.9,29.59,East,100,0.0,0.0,49,0.00,CLR,,0.00,WeatherDisplay:10.37,2013-09-17 22:49:00,
2013-09-17 18:54:00,68.6,50.3,29.60,East,99,0.0,0.0,52,0.00,CLR,,0.00,WeatherDisplay:10.37,2013-09-17 22:54:00,
2013-09-17 18:59:00,68.4,50.1,29.60,East,99,0.0,0.0,52,0.00,CLR,,0.00,WeatherDisplay:10.37,2013-09-17 22:59:00,
2013-09-17 19:04:00,68.4,50.1,29.60,East,99,0.0,0.0,52,0.00,CLR,,0.00,WeatherDisplay:10.37,2013-09-17 23:04:00,
2013-09-17 19:09:00,68.4,50.1,29.59,East,99,0.0,0.0,52,0.00,CLR,,0.00,WeatherDisplay:10.37,2013-09-17 23:09:00,
2013-09-17 19:14:00,68.4,50.1,29.59,East,99,0.0,0.0,52,0.00,CLR,,0.00,WeatherDisplay:10.37,2013-09-17 23:14:00,
2013-09-17 19:20:00,68.4,50.1,29.59,ENE,68,0.0,0.0,52,0.00,CLR,,0.00,WeatherDisplay:10.37,2013-09-17 23:20:00,
2013-09-17 19:25:00,66.4,50.7,29.60,ENE,68,0.0,0.0,57,0.00,CLR,,0.00,WeatherDisplay:10.37,2013-09-17 23:25:00,
2013-09-17 19:30:00,66.0,50.3,29.60,ENE,68,0.0,0.0,57,0.00,CLR,,0.00,WeatherDisplay:10.37,2013-09-17 23:30:00,
2013-09-17 19:35:00,65.6,50.4,29.60,ENE,61,0.0,0.0,58,0.00,CLR,,0.00,WeatherDisplay:10.37,2013-09-17 23:35:00,
2013-09-17 19:40:00,65.3,50.1,29.60,ENE,61,0.0,0.0,58,0.00,CLR,,0.00,WeatherDisplay:10.37,2013-09-17 23:40:00,
2013-09-17 19:45:00,65.0,50.8,29.60,ENE,61,0.0,0.0,60,0.00,CLR,,0.00,WeatherDisplay:10.37,2013-09-17 23:45:00,
2013-09-17 19:50:00,64.7,50.9,29.60,ENE,61,0.0,0.0,61,0.00,CLR,,0.00,WeatherDisplay:10.37,2013-09-17 23:50:00,
2013-09-17 19:55:00,64.3,50.1,29.60,ENE,61,0.0,0.0,60,0.00,CLR,,0.00,WeatherDisplay:10.37,2013-09-17 23:55:00,
2013-09-17 20:00:00,64.0,50.3,29.60,ENE,61,0.0,0.0,61,0.00,CLR,,0.00,WeatherDisplay:10.37,2013-09-18 00:00:00,
2013-09-17 20:05:00,63.7,50.4,29.60,ENE,61,0.0,0.0,62,0.00,CLR,,0.00,WeatherDisplay:10.37,2013-09-18 00:05:00,
2013-09-17 20:10:00,63.4,50.1,29.60,ENE,59,0.0,0.0,62,0.00,CLR,,0.00,WeatherDisplay:10.37,2013-09-18 00:10:00,
2013-09-17 20:15:00,63.2,50.0,29.60,ENE,59,0.0,0.0,62,0.00,CLR,,0.00,WeatherDisplay:10.37,2013-09-18 00:15:00,
2013-09-17 20:20:00,63.1,50.3,29.60,ENE,59,0.0,0.0,63,0.00,CLR,,0.00,WeatherDisplay:10.37,2013-09-18 00:20:00,
2013-09-17 20:25:00,62.9,50.1,29.61,ENE,59,0.0,0.0,63,0.00,CLR,,0.00,WeatherDisplay:10.37,2013-09-18 00:25:00,
2013-09-17 20:30:00,62.7,50.3,29.61,ENE,59,0.0,0.0,64,0.00,CLR,,0.00,WeatherDisplay:10.37,2013-09-18 00:30:00,
2013-09-17 20:35:00,62.6,50.7,29.61,NE,52,0.0,0.0,65,0.00,CLR,,0.00,WeatherDisplay:10.37,2013-09-18 00:35:00,
2013-09-17 20:40:00,62.4,50.5,29.61,NE,42,0.0,0.0,65,0.00,CLR,,0.00,WeatherDisplay:10.37,2013-09-18 00:40:00,
2013-09-17 20:45:00,62.3,50.4,29.61,NE,42,0.0,0.0,65,0.00,CLR,,0.00,WeatherDisplay:10.37,2013-09-18 00:45:00,
2013-09-17 20:50:00,62.1,50.6,29.61,NE,42,0.0,0.0,66,0.00,CLR,,0.00,WeatherDisplay:10.37,2013-09-18 00:50:00,
2013-09-17 20:55:00,62.0,50.5,29.61,NE,42,0.0,0.0,66,0.00,CLR,,0.00,WeatherDisplay:10.37,2013-09-18 00:55:00,
2013-09-17 21:00:00,61.8,50.3,29.61,NE,45,1.1,1.1,66,0.00,CLR,,0.00,WeatherDisplay:10.37,2013-09-18 01:00:00,
2013-09-17 21:05:00,61.8,50.7,29.61,NE,45,0.0,0.0,67,0.00,CLR,,0.00,WeatherDisplay:10.37,2013-09-18 01:05:00,
2013-09-17 21:10:00,61.6,50.5,29.62,NE,49,0.0,0.0,67,0.00,CLR,,0.00,WeatherDisplay:10.37,2013-09-18 01:10:00,
2013-09-17 21:15:00,61.5,50.4,29.62,NE,49,0.0,0.0,67,0.00,CLR,,0.00,WeatherDisplay:10.37,2013-09-18 01:15:00,
2013-09-17 21:20:00,61.3,50.2,29.62,ESE,113,2.3,2.3,67,0.00,CLR,,0.00,WeatherDisplay:10.37,2013-09-18 01:20:00,
2013-09-17 21:25:00,61.2,50.6,29.62,ESE,113,0.0,0.0,68,0.00,CLR,,0.00,WeatherDisplay:10.37,2013-09-18 01:25:00,
2013-09-17 21:30:00,61.0,50.4,29.62,ESE,113,0.0,0.0,68,0.00,CLR,,0.00,WeatherDisplay:10.37,2013-09-18 01:30:00,
2013-09-17 21:35:00,60.9,50.7,29.62,ESE,116,1.1,1.1,69,0.00,CLR,,0.00,WeatherDisplay:10.37,2013-09-18 01:35:00,
2013-09-17 21:40:00,60.5,50.3,29.63,ESE,116,0.0,0.0,69,0.00,CLR,,0.00,WeatherDisplay:10.37,2013-09-18 01:40:00,
2013-09-17 21:45:00,60.4,50.6,29.63,ESE,116,1.1,1.1,70,0.00,CLR,,0.00,WeatherDisplay:10.37,2013-09-18 01:45:00,
2013-09-17 21:50:00,60.1,50.3,29.63,ESE,117,0.0,0.0,70,0.00,CLR,,0.00,WeatherDisplay:10.37,2013-09-18 01:50:00,
2013-09-17 21:55:00,59.9,50.1,29.63,ESE,117,0.0,0.0,70,0.00,CLR,,0.00,WeatherDisplay:10.37,2013-09-18 01:55:00,
2013-09-17 22:01:00,59.8,50.0,29.63,ESE,117,0.0,0.0,70,0.00,CLR,,0.00,WeatherDisplay:10.37,2013-09-18 02:01:00,
2013-09-17 22:06:00,59.6,50.2,29.63,ESE,119,0.0,0.0,71,0.00,CLR,,0.00,WeatherDisplay:10.37,2013-09-18 02:06:00,
2013-09-17 22:11:00,59.3,49.9,29.64,ESE,119,1.1,1.1,71,0.00,CLR,,0.00,WeatherDisplay:10.37,2013-09-18 02:11:00,
2013-09-17 22:16:00,59.2,49.8,29.64,ESE,119,0.0,0.1,71,0.00,CLR,,0.00,WeatherDisplay:10.37,2013-09-18 02:16:00,
2013-09-17 22:21:00,59.0,49.6,29.64,ESE,119,0.0,0.0,71,0.00,CLR,,0.00,WeatherDisplay:10.37,2013-09-18 02:21:00,
2013-09-17 22:26:00,58.9,49.5,29.64,ESE,119,0.0,0.0,71,0.00,CLR,,0.00,WeatherDisplay:10.37,2013-09-18 02:26:00,
2013-09-17 22:31:00,58.7,49.3,29.64,ESE,119,0.0,0.0,71,0.00,CLR,,0.00,WeatherDisplay:10.37,2013-09-18 02:31:00,
2013-09-17 22:36:00,58.6,49.6,29.64,ESE,119,0.0,0.0,72,0.00,CLR,,0.00,WeatherDisplay:10.37,2013-09-18 02:36:00,
2013-09-17 22:41:00,58.4,49.4,29.64,ESE,119,0.0,0.0,72,0.00,CLR,,0.00,WeatherDisplay:10.37,2013-09-18 02:41:00,
2013-09-17 22:46:00,58.3,49.7,29.64,ESE,119,0.0,0.0,73,0.00,CLR,,0.00,WeatherDisplay:10.37,2013-09-18 02:46:00,
2013-09-17 22:51:00,58.0,49.4,29.64,ESE,119,0.0,0.0,73,0.00,CLR,,0.00,WeatherDisplay:10.37,2013-09-18 02:51:00,
2013-09-17 22:56:00,57.8,49.6,29.64,ESE,119,0.0,0.0,74,0.00,CLR,,0.00,WeatherDisplay:10.37,2013-09-18 02:56:00,
2013-09-17 23:01:00,57.6,49.4,29.64,ESE,119,2.3,2.3,74,0.00,CLR,,0.00,WeatherDisplay:10.37,2013-09-18 03:01:00,
2013-09-17 23:06:00,57.5,49.6,29.64,ESE,119,0.0,0.0,75,0.00,CLR,,0.00,WeatherDisplay:10.37,2013-09-18 03:06:00,
2013-09-17 23:11:00,57.2,49.3,29.65,ESE,119,0.0,0.0,75,0.00,CLR,,0.00,WeatherDisplay:10.37,2013-09-18 03:11:00,
2013-09-17 23:16:00,57.0,49.5,29.65,ESE,119,0.0,0.0,76,0.00,CLR,,0.00,WeatherDisplay:10.37,2013-09-18 03:16:00,
2013-09-17 23:21:00,56.9,49.4,29.65,ESE,119,0.0,0.0,76,0.00,CLR,,0.00,WeatherDisplay:10.37,2013-09-18 03:21:00,
2013-09-17 23:26:00,56.7,49.6,29.65,ESE,119,0.0,0.0,77,0.00,CLR,,0.00,WeatherDisplay:10.37,2013-09-18 03:26:00,
2013-09-17 23:31:00,56.6,49.5,29.65,ESE,119,0.0,0.0,77,0.00,CLR,,0.00,WeatherDisplay:10.37,2013-09-18 03:31:00,
2013-09-17 23:36:00,56.6,49.5,29.65,ESE,119,0.0,0.0,77,0.00,CLR,,0.00,WeatherDisplay:10.37,2013-09-18 03:36:00,
2013-09-17 23:41:00,56.5,49.4,29.65,ESE,119,0.0,0.0,77,0.00,CLR,,0.00,WeatherDisplay:10.37,2013-09-18 03:41:00,
2013-09-17 23:46:00,56.3,49.5,29.65,ESE,119,0.0,0.0,78,0.00,CLR,,0.00,WeatherDisplay:10.37,2013-09-18 03:46:00,
2013-09-17 23:51:00,56.2,49.4,29.65,ESE,119,0.0,0.0,78,0.00,CLR,,0.00,WeatherDisplay:10.37,2013-09-18 03:51:00,
2013-09-17 23:56:00,56.0,49.6,29.65,ESE,119,0.0,0.0,79,0.00,CLR,,0.00,WeatherDisplay:10.37,2013-09-18 03:56:00,